Weather History for Farmington, MO

Change the Weather History Date:

Wednesday, December 26, 2012

  Actual Average Record
Temperature  
Mean Temperature 28 °F -  
Max Temperature 30 °F 39 °F 64 °F (2008)
Min Temperature 26 °F 23 °F 1 °F (2002)
Degree Days  
Heating Degree Days 37    
Moisture  
Dew Point 21 °F    
Average Humidity 76    
Maximum Humidity 93    
Minimum Humidity 64    
Precipitation  
Precipitation 0.00 in - - ()
Sea Level Pressure  
Sea Level Pressure 30.00 in    
Wind  
Wind Speed 14 mph (NNW)    
Max Wind Speed 21 mph    
Max Gust Speed 31 mph    
Visibility 8 miles    
Events      
Averages and records for this station are not official NWS values.
T = Trace of Precipitation, MM = Missing Value Source: NWS Daily Summary

Daily Weather History Graph

Daily Weather History Graph

Search for Another Location

Airport:

Trip Planner

Search our weather history database for the weather conditions in past years. The results will help you decide how hot, cold, wet, or windy it might be!

Date:

Astronomy

Dec. 26, 2012 Rise Set
Actual Time 7:15 AM CST 4:49 PM CST
Civil Twilight 6:46 AM CST 5:18 PM CST
Nautical Twilight 6:13 AM CST 5:51 PM CST
Astronomical Twilight 5:41 AM CST 6:23 PM CST
Moon 3:42 PM CST (12/26) 5:39 AM CST (12/26)
Length of Visible Light 10h 32m
Length of Day
9h 33m
Waxing Gibbous, 97% of the Moon is Illuminated
Dec 26
Waxing Gibbous
Dec 28
Full
Jan 4
Last Quarter
Jan 11
New
Jan 18
First Quarter

Hourly Weather History & Observations

Time (CST) Temp. Windchill Dew Point Humidity Pressure Visibility Wind Dir Wind Speed Gust Speed Precip Events Conditions
12:15 AM 30.2 °F 19.8 °F 24.8 °F 80% 29.87 in 7.0 mi North 13.8 mph 24.2 mph N/A   Overcast
12:35 AM 30.2 °F 17.8 °F 24.8 °F 80% 29.87 in 3.0 mi North 19.6 mph 28.8 mph N/A   Overcast
12:55 AM 28.4 °F 17.0 °F 24.8 °F 86% 29.86 in 1.2 mi North 15.0 mph 23.0 mph N/A   Overcast
1:15 AM 28.4 °F 17.0 °F 26.6 °F 93% 29.86 in 1.2 mi North 15.0 mph 25.3 mph N/A   Overcast
1:35 AM 28.4 °F 18.0 °F 24.8 °F 86% 29.86 in 1.0 mi North 12.7 mph 23.0 mph N/A   Overcast
1:55 AM 28.4 °F 17.5 °F 24.8 °F 86% 29.86 in 1.5 mi North 13.8 mph 25.3 mph N/A   Overcast
2:15 AM 28.4 °F 18.0 °F 24.8 °F 86% 29.85 in 1.8 mi North 12.7 mph 24.2 mph N/A   Overcast
2:35 AM 28.4 °F 17.5 °F 24.8 °F 86% 29.84 in 1.0 mi NNW 13.8 mph 20.7 mph N/A   Overcast
2:55 AM 28.4 °F 17.0 °F 24.8 °F 86% 29.84 in 1.0 mi North 15.0 mph 24.2 mph N/A   Overcast
3:15 AM 28.4 °F 17.5 °F 24.8 °F 86% 29.85 in 1.2 mi North 13.8 mph 25.3 mph N/A   Overcast
3:35 AM 28.4 °F 18.5 °F 24.8 °F 86% 29.84 in 1.5 mi NNW 11.5 mph 23.0 mph N/A   Overcast
3:55 AM 28.4 °F 16.6 °F 24.8 °F 86% 29.84 in 1.2 mi NNW 16.1 mph 24.2 mph N/A   Overcast
4:15 AM 26.6 °F 13.8 °F 24.8 °F 93% 29.84 in 1.0 mi NNW 17.3 mph 23.0 mph N/A   Overcast
4:35 AM 26.6 °F 15.2 °F 24.8 °F 93% 29.84 in 1.5 mi NNW 13.8 mph 23.0 mph N/A   Overcast
4:55 AM 26.6 °F 15.2 °F 24.8 °F 93% 29.84 in 2.0 mi North 13.8 mph 31.1 mph N/A   Overcast
5:15 AM 26.6 °F 14.7 °F 23.0 °F 86% 29.85 in 6.0 mi NNW 15.0 mph 26.5 mph N/A   Overcast
5:35 AM 28.4 °F 15.1 °F 23.0 °F 80% 29.85 in 9.0 mi NNW 20.7 mph 27.6 mph N/A   Overcast
6:15 AM 26.6 °F 15.2 °F 21.2 °F 80% 29.87 in 9.0 mi NNW 13.8 mph 25.3 mph N/A   Overcast
6:35 AM 26.6 °F 13.8 °F 21.2 °F 80% 29.87 in 10.0 mi NNW 17.3 mph - N/A   Overcast
6:55 AM 26.6 °F 14.3 °F 21.2 °F 80% 29.87 in 9.0 mi NNW 16.1 mph 24.2 mph N/A   Overcast
7:15 AM 26.6 °F 14.3 °F 21.2 °F 80% 29.88 in 10.0 mi NNW 16.1 mph 25.3 mph N/A   Overcast
7:35 AM 26.6 °F 13.4 °F 21.2 °F 80% 29.89 in 9.0 mi NNW 18.4 mph 24.2 mph N/A   Overcast
7:55 AM 26.6 °F 14.7 °F 21.2 °F 80% 29.90 in 10.0 mi NW 15.0 mph 20.7 mph N/A   Overcast
8:15 AM 26.6 °F 13.4 °F 21.2 °F 80% 29.91 in 10.0 mi NW 18.4 mph 26.5 mph N/A   Overcast
8:35 AM 26.6 °F 13.8 °F 21.2 °F 80% 29.92 in 10.0 mi NNW 17.3 mph 25.3 mph N/A   Overcast
8:55 AM 26.6 °F 14.3 °F 21.2 °F 80% 29.93 in 10.0 mi NNW 16.1 mph 23.0 mph N/A   Overcast
9:15 AM 26.6 °F 15.2 °F 21.2 °F 80% 29.94 in 10.0 mi NNW 13.8 mph 25.3 mph N/A   Overcast
9:35 AM 26.6 °F 15.2 °F 21.2 °F 80% 29.95 in 10.0 mi NNW 13.8 mph 24.2 mph N/A   Overcast
9:55 AM 26.6 °F 14.3 °F 21.2 °F 80% 29.97 in 10.0 mi NNW 16.1 mph 26.5 mph N/A   Overcast
10:15 AM 26.6 °F 15.2 °F 21.2 °F 80% 29.98 in 10.0 mi NW 13.8 mph 27.6 mph N/A   Overcast
10:35 AM 26.6 °F 15.2 °F 19.4 °F 74% 29.99 in 10.0 mi NW 13.8 mph 23.0 mph N/A   Overcast
10:55 AM 26.6 °F 13.1 °F 19.4 °F 74% 29.99 in 10.0 mi NNW 19.6 mph 27.6 mph N/A   Overcast
11:15 AM 26.6 °F 14.7 °F 21.2 °F 80% 30.00 in 10.0 mi NW 15.0 mph 19.6 mph N/A   Overcast
11:35 AM 26.6 °F 15.2 °F 21.2 °F 80% 30.00 in 10.0 mi NW 13.8 mph 20.7 mph N/A   Overcast
11:55 AM 28.4 °F 17.0 °F 21.2 °F 74% 30.00 in 10.0 mi NNW 15.0 mph 20.7 mph N/A   Overcast
12:15 PM 28.4 °F 17.0 °F 21.2 °F 74% 29.99 in 10.0 mi NNW 15.0 mph 20.7 mph N/A   Overcast
12:35 PM 28.4 °F 19.1 °F 21.2 °F 74% 29.99 in 10.0 mi NW 10.4 mph 19.6 mph N/A   Overcast
12:55 PM 28.4 °F 17.5 °F 21.2 °F 74% 30.00 in 10.0 mi NW 13.8 mph 19.6 mph N/A   Overcast
1:15 PM 28.4 °F 17.5 °F 21.2 °F 74% 30.01 in 10.0 mi NW 13.8 mph 20.7 mph N/A   Overcast
1:35 PM 30.2 °F 20.8 °F 21.2 °F 69% 30.00 in 10.0 mi NNW 11.5 mph 18.4 mph N/A   Overcast
1:55 PM 30.2 °F 21.3 °F 21.2 °F 69% 30.01 in 10.0 mi NW 10.4 mph 19.6 mph N/A   Overcast
2:15 PM 30.2 °F 20.2 °F 21.2 °F 69% 30.02 in 10.0 mi NW 12.7 mph 21.9 mph N/A   Overcast
2:35 PM 30.2 °F 19.8 °F 21.2 °F 69% 30.04 in 10.0 mi NW 13.8 mph 19.6 mph N/A   Overcast
2:55 PM 30.2 °F 19.3 °F 21.2 °F 69% 30.04 in 10.0 mi NNW 15.0 mph 18.4 mph N/A   Overcast
3:15 PM 30.2 °F 19.3 °F 21.2 °F 69% 30.05 in 10.0 mi NW 15.0 mph 19.6 mph N/A   Overcast
3:35 PM 30.2 °F 19.8 °F 21.2 °F 69% 30.06 in 10.0 mi NW 13.8 mph 20.7 mph N/A   Overcast
3:55 PM 30.2 °F 19.8 °F 21.2 °F 69% 30.06 in 10.0 mi NW 13.8 mph 17.3 mph N/A   Overcast
4:15 PM 30.2 °F 20.2 °F 21.2 °F 69% 30.07 in 10.0 mi NW 12.7 mph 17.3 mph N/A   Overcast
4:35 PM 30.2 °F 20.8 °F 21.2 °F 69% 30.08 in 10.0 mi NW 11.5 mph - N/A   Overcast
4:55 PM 30.2 °F 20.2 °F 19.4 °F 64% 30.09 in 10.0 mi NNW 12.7 mph 20.7 mph N/A   Overcast
5:15 PM 30.2 °F 20.8 °F 19.4 °F 64% 30.09 in 10.0 mi NW 11.5 mph 17.3 mph N/A   Overcast
5:35 PM 30.2 °F 20.2 °F 19.4 °F 64% 30.09 in 10.0 mi NNW 12.7 mph 17.3 mph N/A   Overcast
5:55 PM 28.4 °F 19.1 °F 19.4 °F 69% 30.10 in 10.0 mi NNW 10.4 mph 19.6 mph N/A   Overcast
6:15 PM 28.4 °F 19.7 °F 19.4 °F 69% 30.10 in 10.0 mi NNW 9.2 mph 17.3 mph N/A   Overcast
6:35 PM 28.4 °F 18.0 °F 19.4 °F 69% 30.11 in 10.0 mi NNW 12.7 mph - N/A   Overcast
6:55 PM 28.4 °F 19.1 °F 19.4 °F 69% 30.11 in 10.0 mi NNW 10.4 mph - N/A   Overcast
7:15 PM 28.4 °F 19.7 °F 19.4 °F 69% 30.13 in 10.0 mi NNW 9.2 mph - N/A   Overcast
7:35 PM 28.4 °F 19.1 °F 19.4 °F 69% 30.14 in 10.0 mi NNW 10.4 mph - N/A   Overcast
7:55 PM 28.4 °F 21.2 °F 19.4 °F 69% 30.14 in 10.0 mi NNW 6.9 mph - N/A   Overcast
8:15 PM 28.4 °F 19.1 °F 19.4 °F 69% 30.14 in 10.0 mi North 10.4 mph - N/A   Overcast
8:35 PM 28.4 °F 19.7 °F 19.4 °F 69% 30.14 in 10.0 mi NNW 9.2 mph - N/A   Overcast
8:55 PM 28.4 °F 22.2 °F 19.4 °F 69% 30.14 in 10.0 mi NNW 5.8 mph - N/A   Overcast
9:15 PM 28.4 °F 19.7 °F 19.4 °F 69% 30.14 in 10.0 mi North 9.2 mph - N/A   Overcast
9:35 PM 28.4 °F 22.2 °F 19.4 °F 69% 30.15 in 10.0 mi North 5.8 mph - N/A   Overcast
9:55 PM 26.6 °F 18.2 °F 19.4 °F 74% 30.15 in 10.0 mi North 8.1 mph - N/A   Overcast
10:15 PM 26.6 °F 16.8 °F 19.4 °F 74% 30.16 in 10.0 mi North 10.4 mph - N/A   Overcast
10:35 PM 26.6 °F 19.1 °F 19.4 °F 74% 30.17 in 10.0 mi North 6.9 mph - N/A   Overcast
10:55 PM 26.6 °F 20.0 °F 19.4 °F 74% 30.16 in 10.0 mi NNW 5.8 mph - N/A   Overcast
11:15 PM 26.6 °F 19.1 °F 19.4 °F 74% 30.16 in 10.0 mi North 6.9 mph - N/A   Overcast
11:35 PM 26.6 °F 20.0 °F 19.4 °F 74% 30.15 in 10.0 mi NW 5.8 mph - N/A   Overcast
11:55 PM 26.6 °F 20.0 °F 19.4 °F 74% 30.15 in 10.0 mi NW 5.8 mph - N/A   Overcast